This is the latest recevied weather packets stored in our database for station/object KE5VT. If no packets are shown the sender has not sent any weather packets the latest 10 day(s).
| Time | Temp. | Humidity | Pressure | Rain* | Wind** | Luminosity | Snow |
|---|---|---|---|---|---|---|---|
| 1777940967 | 21.67° C | 36% | 1010.7 hPa | 0 mm | - | 0 W/m² | - |
| 1777940663 | 22.22° C | 37% | 1010.5 hPa | 0 mm | - | 0 W/m² | - |
| 1777940362 | 22.22° C | 36% | 1010.7 hPa | 0 mm | - | 1 W/m² | - |
| 1777940059 | 22.22° C | 35% | 1010.6 hPa | 0 mm | - | 1 W/m² | - |
| 1777939756 | 22.78° C | 35% | 1010.6 hPa | 0 mm | - | 2 W/m² | - |
| 1777939454 | 22.78° C | 35% | 1010.6 hPa | 0 mm | - | 3 W/m² | - |
| 1777939150 | 22.78° C | 35% | 1010.7 hPa | 0 mm | - | 5 W/m² | - |
| 1777938848 | 22.78° C | 35% | 1010.6 hPa | 0 mm | - | 7 W/m² | - |
| 1777938543 | 23.33° C | 34% | 1010.3 hPa | 0 mm | - | 9 W/m² | - |
| 1777938241 | 23.33° C | 34% | 1010.3 hPa | 0 mm | - | 11 W/m² | - |
| 1777937937 | 23.33° C | 35% | 1010.1 hPa | 0 mm | - | 14 W/m² | - |
| 1777937633 | 23.89° C | 35% | 1010.3 hPa | 0 mm | - | 13 W/m² | - |
| 1777937330 | 23.89° C | 34% | 1010.3 hPa | 0 mm | - | 16 W/m² | - |
| 1777937027 | 23.89° C | 34% | 1010.1 hPa | 0 mm | - | 16 W/m² | - |
| 1777936724 | 23.89° C | 34% | 1010.1 hPa | 0 mm | - | 17 W/m² | - |
| 1777936421 | 24.44° C | 33% | 1010.2 hPa | 0 mm | - | 20 W/m² | - |
| 1777936117 | 24.44° C | 32% | 1010 hPa | 0 mm | - | 23 W/m² | - |
| 1777935815 | 24.44° C | 32% | 1010 hPa | 0 mm | - | 26 W/m² | - |
| 1777935513 | 25° C | 31% | 1009.9 hPa | 0 mm | - | 28 W/m² | - |
| 1777935209 | 25° C | 31% | 1010 hPa | 0 mm | - | 37 W/m² | - |
| 1777934907 | 25° C | 30% | 1010.1 hPa | 0 mm | - | 30 W/m² | - |
| 1777934604 | 25° C | 30% | 1010.1 hPa | 0 mm | - | 36 W/m² | - |
| 1777934300 | 25.56° C | 30% | 1010 hPa | 0 mm | - | 39 W/m² | - |
| 1777933996 | 25.56° C | 30% | 1010.1 hPa | 0 mm | - | 150 W/m² | - |
| 1777933693 | 25.56° C | 30% | 1010.1 hPa | 0 mm | - | 143 W/m² | - |
* Rain latest hour (hover to see other rain measurements)
** Current wind speed in m/s (hover to see current wind gust speed)